Location: Dugenta
(41.1333°N, 14.4500°E)
Time: 13:22:53
(UTC+00:00)

Cosmos 1727 Rocket - Pass Details

Date: 03 March 2021
Orbit: 961 x 996 km, 82.9° (Epoch: 13 April)

Event Time Altitude Azimuth Distance (km) Brightness Sun altitude
Rises 18:43:52 0° 358° (N) 3,656 7.2 -21.1°
Reaches altitude 10° 18:46:30 10° 4° (N) 2,707 6.4 -21.6°
Maximum altitude 18:52:26 47° 78° (ENE) 1,258 4.2 -22.7°
Enters shadow 18:52:57 46° 92° (E) 1,275 4.1 -22.8°
